| time (UTC) | temp C | wind direction | speed KPH | gust KPH | rain 1hr cm | rain 24hr cm | rain mn cm | humidity % | barometer mb |
| 20260504044540 | 13 | 209 | 0.0 | 1.6 | 0.00 | 0.00 | 0.00 | 69 | 1013.8 |
| 20260504043041 | 13 | 209 | 0.0 | 0.0 | 0.00 | 0.00 | 0.00 | 69 | 1013.8 |
| 20260504041543 | 14 | 203 | 1.6 | 1.6 | 0.00 | 0.00 | 0.00 | 69 | 1015.3 |
| 20260504041539 | 13 | 209 | 0.0 | 1.6 | 0.00 | 0.00 | 0.00 | 68 | 1013.6 |
| 20260504040044 | 13 | 209 | 0.0 | 0.0 | 0.00 | 0.00 | 0.00 | 68 | 1013.7 |
| 20260504034542 | 13 | 208 | 0.0 | 1.6 | 0.00 | 0.00 | 0.00 | 67 | 1013.8 |
| 20260504033039 | 14 | 209 | 0.0 | 1.6 | 0.00 | 0.00 | 0.00 | 67 | 1014.0 |
| 20260504031833 | 14 | 0.0 | 0.0 | 0.00 | 0.00 | 0.00 | 67 | 1015.7 | |
| 20260504031543 | 14 | 208 | 0.0 | 3.2 | 0.00 | 0.00 | 0.00 | 66 | 1013.9 |
| 20260504030036 | 14 | 208 | 0.0 | 3.2 | 0.00 | 0.00 | 0.00 | 67 | 1014.1 |
| 20260504024534 | 15 | 248 | 1.6 | 4.8 | 0.00 | 0.00 | 0.00 | 65 | 1014.0 |
| 20260504023033 | 15 | 248 | 0.0 | 3.2 | 0.00 | 0.00 | 0.00 | 64 | 1013.9 |
| 20260504021704 | 16 | 248 | 1.6 | 3.2 | 0.00 | 0.00 | 0.00 | 62 | 1015.5 |
| 20260504021532 | 15 | 248 | 1.6 | 4.8 | 0.00 | 0.00 | 0.00 | 63 | 1013.7 |
| 20260504020029 | 15 | 268 | 0.0 | 0.0 | 0.00 | 0.00 | 0.00 | 61 | 1013.3 |
| 20260504014528 | 16 | 269 | 0.0 | 6.4 | 0.00 | 0.00 | 0.00 | 61 | 1013.3 |
| 20260504013034 | 15 | 306 | 0.0 | 6.4 | 0.00 | 0.00 | 0.00 | 62 | 1013.1 |
| 20260504011800 | 15 | 293 | 4.8 | 6.4 | 0.00 | 0.00 | 0.00 | 65 | 1015.0 |
| 20260504011527 | 15 | 260 | 0.0 | 6.4 | 0.00 | 0.00 | 0.00 | 64 | 1013.1 |
| 20260504010022 | 13 | 265 | 1.6 | 6.4 | 0.00 | 0.00 | 0.00 | 67 | 1013.2 |
| 20260504004526 | 13 | 220 | 0.0 | 9.7 | 0.00 | 0.00 | 0.00 | 69 | 1013.3 |
| 20260504003030 | 13 | 225 | 3.2 | 6.4 | 0.00 | 0.00 | 0.00 | 69 | 1013.2 |
| 20260504001729 | 15 | 0.0 | 0.0 | 0.00 | 0.00 | 0.00 | 65 | 1014.2 | |
| 20260504001524 | 15 | 116 | 0.0 | 1.6 | 0.00 | 0.00 | 0.00 | 66 | 1012.5 |
| 20260504000046 | 15 | 115 | 0.0 | 3.2 | 0.00 | 0.00 | 0.00 | 64 | 1012.6 |
| 20260503234518 | 15 | 98 | 3.2 | 6.4 | 0.00 | 0.00 | 0.00 | 63 | 1012.5 |
| 20260503233016 | 14 | 115 | 1.6 | 4.8 | 0.00 | 0.00 | 0.00 | 66 | 1012.9 |
| 20260503231648 | 14 | 293 | 1.6 | 1.6 | 0.00 | 0.00 | 0.00 | 67 | 1014.6 |
| 20260503231515 | 14 | 282 | 0.0 | 3.2 | 0.00 | 0.00 | 0.00 | 67 | 1013.2 |
| 20260503230018 | 14 | 282 | 0.0 | 0.0 | 0.00 | 0.00 | 0.00 | 68 | 1013.1 |
| 20260503224512 | 15 | 282 | 0.0 | 1.6 | 0.00 | 0.00 | 0.00 | 67 | 1013.0 |
| 20260503223010 | 15 | 283 | 0.0 | 3.2 | 0.00 | 0.00 | 0.00 | 65 | 1012.7 |
| 20260503221637 | 15 | 0.0 | 0.0 | 0.00 | 0.00 | 0.00 | 64 | 1014.1 | |
| 20260503221507 | 15 | 282 | 0.0 | 0.0 | 0.00 | 0.00 | 0.00 | 66 | 1012.7 |
| 20260503220004 | 15 | 282 | 0.0 | 0.0 | 0.00 | 0.00 | 0.00 | 64 | 1012.6 |
| 20260503214503 | 15 | 281 | 0.0 | 1.6 | 0.00 | 0.00 | 0.00 | 63 | 1012.6 |
| 20260503213004 | 15 | 281 | 0.0 | 1.6 | 0.00 | 0.00 | 0.00 | 61 | 1012.6 |
| 20260503211628 | 16 | 0.0 | 0.0 | 0.00 | 0.00 | 0.00 | 60 | 1013.4 | |
| 20260503211503 | 16 | 282 | 0.0 | 1.6 | 0.00 | 0.00 | 0.00 | 61 | 1012.3 |
| 20260503210002 | 16 | 280 | 0.0 | 3.2 | 0.00 | 0.00 | 0.00 | 60 | 1012.0 |
| 20260503204502 | 17 | 286 | 0.0 | 1.6 | 0.00 | 0.00 | 0.00 | 57 | 1012.2 |
| 20260503203001 | 17 | 283 | 0.0 | 1.6 | 0.00 | 0.00 | 0.00 | 54 | 1012.1 |
| 20260503201600 | 18 | 279 | 0.0 | 1.6 | 0.00 | 0.00 | 0.00 | 52 | 1012.1 |
| 20260503201405 | 18 | 0.0 | 1.6 | 0.00 | 0.00 | 0.00 | 51 | 1013.3 | |
| 20260503200101 | 18 | 279 | 0.0 | 3.2 | 0.00 | 0.00 | 0.00 | 51 | 1012.0 |
| 20260503194600 | 19 | 279 | 1.6 | 3.2 | 0.00 | 0.00 | 0.00 | 49 | 1012.0 |
| 20260503193058 | 20 | 277 | 0.0 | 3.2 | 0.00 | 0.00 | 0.00 | 47 | 1012.0 |
| 20260503191705 | 20 | 0.0 | 0.0 | 0.00 | 0.00 | 0.00 | 45 | 1012.7 | |
| 20260503191604 | 20 | 281 | 0.0 | 1.6 | 0.00 | 0.00 | 0.00 | 46 | 1011.8 |
| 20260503184557 | 20 | 309 | 0.0 | 4.8 | 0.00 | 0.00 | 0.00 | 42 | 1011.4 |
| 20260503183057 | 21 | 221 | 0.0 | 3.2 | 0.00 | 0.00 | 0.00 | 43 | 1011.3 |
| 20260503181632 | 22 | 225 | 3.2 | 3.2 | 0.00 | 0.00 | 0.00 | 37 | 1011.7 |
| 20260503181604 | 22 | 224 | 0.0 | 3.2 | 0.00 | 0.00 | 0.00 | 37 | 1011.1 |
| 20260503174556 | 22 | 228 | 0.0 | 3.2 | 0.00 | 0.00 | 0.00 | 40 | 1011.0 |
| 20260503173100 | 22 | 229 | 1.6 | 6.4 | 0.00 | 0.00 | 0.00 | 39 | 1010.9 |
| 20260503171559 | 22 | 325 | 1.6 | 8.0 | 0.00 | 0.00 | 0.00 | 39 | 1010.9 |
| 20260503171403 | 23 | 248 | 4.8 | 8.0 | 0.00 | 0.00 | 0.00 | 38 | 1011.6 |
| 20260503171358 | 23 | 225 | 3.2 | 4.8 | 0.00 | 0.00 | 0.00 | 39 | 1011.6 |
| 20260503081529 | 18 | 298 | 0.0 | 3.2 | 0.00 | 0.00 | 0.00 | 56 | 1016.1 |
| 20260503081501 | 18 | 293 | 1.6 | 3.2 | 0.00 | 0.00 | 0.00 | 55 | 1017.2 |